Location: Amherst
(42.5000°N, 72.5000°W)
Time: 02:21:59
(UTC-04:00)

ISS - Pass Details

Date: 22 May 2018
Orbit: 402 x 407 km, 51.6° (Epoch: 26 May)

Event Time Altitude Azimuth Distance (km) Brightness Sun altitude
Rises 21:33:42 0° 240° (WSW) 2,309 0.2 -12.9°
Reaches altitude 10° 21:35:46 10° 242° (WSW) 1,452 -0.8 -13.1°
Maximum altitude 21:39:01 72° 328° (NNW) 426 -3.6 -13.6°
Drops below altitude 10° 21:42:17 10° 53° (NE) 1,458 -1.1 -14.0°
Sets 21:44:22 0° 56° (NE) 2,319 -0.1 -14.2°
